PHENX84 YMEN-YRMH

Flight info

Callsign PHENX84
Flight time 0h -33m
Altitude 1500
Route 3750S14445E
Aircraft EC45/L-SDFGRY/C

Departure

Time 2026-05-04 10:16
Airport Melbourne Essendon Airport (YMEN)

Arrival

Time 2026-05-04 09:43
Airport Royal Melbourne Hospital Helipad (YRMH)
Time Latitude Longitude Altitude Speed Heading
2026-05-04 09:42 -37.71969 144.89874 283 ft 0 kts 264°
2026-05-04 09:44 -37.71970 144.89871 283 ft 0 kts 240°
2026-05-04 09:46 -37.71974 144.89864 283 ft 1 kts 162°
2026-05-04 09:53 -37.71979 144.89868 285 ft 4 kts 162°
2026-05-04 09:54 -37.72051 144.89882 287 ft 12 kts 163°
2026-05-04 09:54 -37.72133 144.89909 297 ft 17 kts 165°
2026-05-04 09:54 -37.72378 144.90046 319 ft 61 kts 155°
2026-05-04 09:54 -37.72797 144.90308 403 ft 76 kts 148°
2026-05-04 09:55 -37.73340 144.90674 463 ft 95 kts 142°
2026-05-04 09:55 -37.73911 144.91064 483 ft 90 kts 143°
2026-05-04 09:55 -37.74431 144.91478 491 ft 89 kts 140°
2026-05-04 09:55 -37.74958 144.91947 495 ft 96 kts 138°
2026-05-04 09:56 -37.75473 144.92396 502 ft 86 kts 138°
2026-05-04 09:56 -37.75950 144.92823 499 ft 83 kts 136°
2026-05-04 09:56 -37.76399 144.93275 486 ft 83 kts 136°
2026-05-04 09:56 -37.76916 144.93822 495 ft 103 kts 135°
2026-05-04 09:57 -37.77460 144.94382 499 ft 99 kts 136°
2026-05-04 09:57 -37.77988 144.94946 497 ft 101 kts 136°
2026-05-04 09:57 -37.78530 144.95522 497 ft 104 kts 137°
2026-05-04 09:57 -37.79121 144.96100 501 ft 111 kts 140°
2026-05-04 09:58 -37.79762 144.96621 505 ft 105 kts 143°
2026-05-04 09:58 -37.80168 144.96955 485 ft 105 kts 142°
2026-05-04 09:58 -37.81042 144.97694 503 ft 114 kts 143°
2026-05-04 10:00 -37.83065 144.94550 456 ft 103 kts 279°
2026-05-04 10:00 -37.83080 144.93639 471 ft 104 kts 274°
2026-05-04 10:02 -37.82995 144.87616 497 ft 96 kts 292°
2026-05-04 10:04 -37.82360 144.81713 499 ft 102 kts 281°
2026-05-04 10:04 -37.82353 144.80836 499 ft 101 kts 276°
2026-05-04 10:04 -37.82375 144.79947 490 ft 104 kts 274°
2026-05-04 10:04 -37.82373 144.79003 501 ft 105 kts 276°
2026-05-04 10:05 -37.82371 144.78091 509 ft 98 kts 275°
2026-05-04 10:05 -37.82399 144.77320 504 ft 80 kts 274°
2026-05-04 10:05 -37.82461 144.76683 499 ft 65 kts 275°
2026-05-04 10:05 -37.82551 144.76150 493 ft 63 kts 274°
2026-05-04 10:06 -37.82656 144.75592 404 ft 68 kts 267°
2026-05-04 10:06 -37.82811 144.75093 287 ft 47 kts 293°
2026-05-04 10:06 -37.82705 144.75014 218 ft 22 kts 37°
2026-05-04 10:08 -37.82593 144.75189 120 ft 0 kts 28°
2026-05-04 10:12 -37.82586 144.75200 165 ft 3 kts 65°
2026-05-04 10:13 -37.82599 144.75255 196 ft 12 kts 114°
2026-05-04 10:13 -37.82713 144.75449 266 ft 50 kts 114°
2026-05-04 10:13 -37.83063 144.75912 320 ft 76 kts 121°
2026-05-04 10:13 -37.83241 144.76583 374 ft 88 kts 93°
2026-05-04 10:14 -37.83403 144.77463 411 ft 110 kts 93°
2026-05-04 10:14 -37.83610 144.78389 473 ft 109 kts 94°
2026-05-04 10:16 -37.83631 144.85339 1018 ft 122 kts 79°
2026-05-04 10:16 -37.83588 144.86389 1010 ft 119 kts 79°
2026-05-04 10:16 -37.83536 144.87433 1012 ft 119 kts 78°
2026-05-04 10:16 -37.83498 144.88480 1016 ft 120 kts 79°
2026-05-04 10:17 -37.83472 144.89553 1017 ft 123 kts 78°
2026-05-04 10:17 -37.83448 144.90640 1023 ft 124 kts 80°
2026-05-04 10:19 -37.83063 144.96639 529 ft 62 kts 58°
2026-05-04 10:19 -37.82891 144.97116 590 ft 52 kts 53°